KN4JGH Weather Reports


time (UTC)temp
C
wind
direction
speed
KPH
gust
KPH
rain 1hr
cm
rain 24hr
cm
rain mn
cm
humidity
%
barometer
mb
20260906130327 27 167 3.2 4.8 0.00 0.00 0.00 78 1013.4
20260906125327 26 129 0.0 3.2 0.00 0.00 0.00 82 1013.4
20260906124321 25 181 1.6 3.2 0.00 0.00 0.00 82 1013.4
20260906123317 25 181 1.6 3.2 0.00 0.00 0.00 84 1013.3
20260906122317 24 57 0.0 4.8 0.00 0.00 0.00 86 1013.3
20260906121331 23 107 0.0 4.8 0.00 0.00 0.00 87 1013.2
20260906120327 23 107 3.2 4.8 0.00 0.00 0.00 87 1013.1
20260906115323 23 73 1.6 6.4 0.00 0.00 0.00 87 1013.1
20260906114322 23 260 1.6 8.0 0.00 0.00 0.00 88 1013.0
20260906113317 23 270 1.6 8.0 0.00 0.00 0.00 88 1013.0
20260906112313 23 253 0.0 6.4 0.00 0.00 0.00 89 1012.9
20260906111331 23 296 1.6 6.4 0.00 0.00 0.00 89 1012.9
20260906110328 23 260 1.6 4.8 0.00 0.00 0.00 89 1012.9
20260906105325 23 259 1.6 6.4 0.00 0.00 0.00 89 1012.9
20260906104339 23 147 0.0 3.2 0.00 0.00 0.00 89 1012.7
20260906103338 23 216 3.2 4.8 0.00 0.00 0.00 89 1012.7
20260906102313 23 204 0.0 0.0 0.00 0.00 0.00 89 1012.7
20260906101328 23 198 0.0 1.6 0.00 0.00 0.00 89 1012.7
20260906100323 23 86 1.6 3.2 0.00 0.00 0.00 89 1012.7
20260906095323 23 86 1.6 6.4 0.00 0.00 0.00 89 1012.7
20260906094317 23 249 1.6 6.4 0.00 0.00 0.00 89 1012.8
20260906093314 23 209 3.2 9.7 0.00 0.00 0.00 88 1013.1
20260906092314 23 246 4.8 9.7 0.00 0.00 0.00 88 1013.2
20260906091329 23 214 4.8 9.7 0.00 0.00 0.00 88 1013.3
20260906090325 23 277 3.2 8.0 0.00 0.00 0.00 88 1013.3
20260906085341 23 244 4.8 6.4 0.00 0.00 0.00 87 1013.2
20260906084319 23 288 0.0 3.2 0.00 0.00 0.00 85 1012.8
20260906083314 24 288 1.6 4.8 0.00 0.00 0.00 84 1012.5
20260906082329 24 191 0.0 3.2 0.00 0.00 0.00 83 1012.6
20260906081343 24 191 0.0 6.4 0.00 0.00 0.00 83 1012.7
20260906080341 25 225 1.6 4.8 0.00 0.00 0.00 82 1013.1
20260906075316 25 194 3.2 8.0 0.00 0.00 0.00 82 1013.3
20260906074330 24 250 3.2 8.0 0.00 0.00 0.00 83 1013.7
20260906073330 25 273 6.4 14.5 0.00 0.00 0.00 83 1013.8
20260906072344 25 146 0.0 4.8 0.00 0.00 0.00 82 1013.2
20260906071316 25 238 3.2 4.8 0.00 0.00 0.00 82 1013.0
20260906070312 25 185 1.6 6.4 0.00 0.00 0.00 82 1013.0
20260906065312 25 223 3.2 4.8 0.00 0.00 0.00 81 1013.4
20260906064347 25 195 6.4 11.3 0.00 0.00 0.00 81 1013.4
20260906063321 25 275 1.6 14.5 0.00 0.00 0.00 80 1013.2
20260906062317 25 167 1.6 11.3 0.00 0.00 0.00 80 1013.2
20260906061336 25 177 1.6 16.1 0.00 0.00 0.00 79 1013.3
20260906060331 25 188 8.0 16.1 0.00 0.00 0.00 79 1013.5
20260906055326 26 100 8.0 14.5 0.00 0.00 0.00 79 1013.5
20260906054320 26 176 1.6 20.9 0.00 0.00 0.00 80 1013.5
20260906053320 26 122 6.4 19.3 0.00 0.00 0.00 79 1013.6
20260906052336 26 119 11.3 32.2 0.00 0.00 0.00 78 1013.8
20260906051350 27 83 14.5 27.4 0.00 0.00 0.00 77 1013.8
20260906050324 27 127 9.7 14.5 0.00 0.00 0.00 76 1013.4
20260906045322 27 159 1.6 3.2 0.00 0.00 0.00 77 1013.0
20260906044316 26 188 1.6 3.2 0.00 0.00 0.00 79 1012.8
20260906043330 26 353 0.0 0.0 0.00 0.00 0.00 79 1012.9
20260906042328 26 353 0.0 0.0 0.00 0.00 0.00 80 1012.9
20260906041320 26 353 0.0 0.0 0.00 0.00 0.00 80 1012.9
20260906040336 26 353 0.0 0.0 0.00 0.00 0.00 81 1013.1
20260906035330 26 353 0.0 1.6 0.00 0.00 0.00 82 1013.2
20260906034329 26 353 0.0 1.6 0.00 0.00 0.00 82 1013.3
20260906033325 26 353 0.0 1.6 0.00 0.00 0.00 81 1013.2
20260906032320 26 353 1.6 3.2 0.00 0.00 0.00 82 1013.1
20260906031337 26 353 0.0 1.6 0.00 0.00 0.00 81 1013.1
20260906030330 27 353 0.0 3.2 0.00 0.00 0.00 80 1013.0
20260906025325 27 353 1.6 3.2 0.00 0.00 0.00 79 1012.9
20260906024319 27 353 0.0 1.6 0.00 0.00 0.00 78 1012.6
20260906023319 27 353 1.6 3.2 0.00 0.00 0.00 77 1012.3
20260906022314 28 353 0.0 3.2 0.00 0.00 0.00 77 1012.2
20260906021349 28 353 3.2 3.2 0.00 0.00 0.00 75 1012.1
20260906020325 28 353 0.0 3.2 0.00 0.00 0.00 74 1012.1
20260906015325 29 353 1.6 4.8 0.00 0.00 0.00 71 1011.8
20260906014320 30 14 3.2 6.4 0.00 0.00 0.00 70 1011.7
20260906013316 29 210 3.2 12.9 0.00 0.00 0.00 70 1011.8
20260906012315 28 119 3.2 6.4 0.00 0.00 0.00 76 1011.9
20260906011330 28 350 0.0 1.6 0.00 0.00 0.00 77 1011.7
20260906010326 28 350 0.0 3.2 0.00 0.00 0.00 77 1011.8
20260906005339 28 350 1.6 3.2 0.00 0.00 0.00 77 1011.8
20260906004317 29 350 1.6 3.2 0.00 0.00 0.00 76 1011.7
20260906003313 29 350 1.6 3.2 0.00 0.00 0.00 75 1011.6
20260906002329 30 350 1.6 3.2 0.00 0.00 0.00 74 1011.5
20260906001328 30 350 1.6 3.2 0.00 0.00 0.00 72 1011.4
20260906000326 31 350 1.6 4.8 0.00 0.00 0.00 70 1011.4
20260905235319 31 34 1.6 3.2 0.00 0.00 0.00 67 1011.4
20260905234351 32 34 1.6 4.8 0.00 0.00 0.00 66 1011.4
20260905233350 33 15 1.6 6.4 0.00 0.00 0.00 64 1011.5
20260905232325 33 29 1.6 4.8 0.00 0.00 0.00 60 1011.4
20260905231320 35 14 3.2 6.4 0.00 0.00 0.00 56 1011.4
20260905230336 35 350 3.2 6.4 0.00 0.00 0.00 53 1011.2
20260905225315 36 42 4.8 8.0 0.00 0.00 0.00 51 1011.4
20260905224329 36 24 4.8 9.7 0.00 0.00 0.00 49 1011.4
20260905223325 36 24 4.8 12.9 0.00 0.00 0.00 48 1011.6
20260905222325 37 29 4.8 8.0 0.00 0.00 0.00 46 1011.6
20260905221320 37 46 4.8 9.7 0.00 0.00 0.00 45 1011.4
20260905220316 37 34 4.8 9.7 0.00 0.00 0.00 45 1011.5
20260905215317 37 356 4.8 11.3 0.00 0.00 0.00 42 1011.6
20260905214332 38 53 6.4 11.3 0.00 0.00 0.00 43 1011.6
20260905213347 38 264 3.2 14.5 0.00 0.00 0.00 42 1011.7
20260905212340 38 324 4.8 9.7 0.00 0.00 0.00 42 1011.7
20260905211352 38 46 1.6 14.5 0.00 0.00 0.00 43 1011.7
20260905210330 38 46 4.8 16.1 0.00 0.00 0.00 43 1011.9
20260905205325 38 325 6.4 14.5 0.00 0.00 0.00 45 1011.9
20260905204340 38 24 8.0 12.9 0.00 0.00 0.00 45 1012.0
20260905203319 38 317 4.8 12.9 0.00 0.00 0.00 43 1012.2
20260905202316 38 359 6.4 12.9 0.00 0.00 0.00 46 1012.4
20260905201351 37 47 3.2 16.1 0.00 0.00 0.00 49 1012.5
20260905200326 38 29 4.8 14.5 0.00 0.00 0.00 47 1012.7
20260905195325 38 308 8.0 16.1 0.00 0.00 0.00 47 1012.8
20260905194319 37 250 6.4 12.9 0.00 0.00 0.00 46 1012.9
20260905193315 37 268 1.6 12.9 0.00 0.00 0.00 48 1013.1
20260905192315 37 348 6.4 12.9 0.00 0.00 0.00 48 1013.1
20260905191329 37 75 4.8 14.5 0.00 0.00 0.00 51 1013.3
20260905190325 37 78 4.8 12.9 0.00 0.00 0.00 53 1013.6
20260905185320 36 94 3.2 9.7 0.00 0.00 0.00 53 1013.7
20260905184316 36 323 3.2 12.9 0.00 0.00 0.00 48 1013.8
20260905183312 36 60 1.6 11.3 0.00 0.00 0.00 51 1014.1
20260905182348 36 9 6.4 12.9 0.00 0.00 0.00 50 1014.1
20260905181322 36 45 8.0 16.1 0.00 0.00 0.00 52 1014.3
20260905180322 36 240 1.6 6.4 0.00 0.00 0.00 53 1014.3
20260905175317 35 358 3.2 14.5 0.00 0.00 0.00 56 1014.4
20260905174332 36 67 6.4 16.1 0.00 0.00 0.00 56 1014.5
20260905173352 35 356 6.4 14.5 0.00 0.00 0.00 57 1014.5
20260905172327 35 61 4.8 14.5 0.00 0.00 0.00 58 1014.5
20260905171322 35 159 1.6 6.4 0.00 0.00 0.00 59 1014.7
20260905170338 34 90 3.2 9.7 0.00 0.00 0.00 60 1014.7
20260905165336 34 236 3.2 12.9 0.00 0.00 0.00 61 1014.8
20260905164329 33 15 1.6 6.4 0.00 0.00 0.00 63 1015.0
20260905163325 33 29 3.2 9.7 0.00 0.00 0.00 63 1015.2
20260905162320 33 44 4.8 8.0 0.00 0.00 0.00 63 1015.3
20260905161320 32 91 6.4 9.7 0.00 0.00 0.00 65 1015.3
20260905160335 32 86 3.2 9.7 0.00 0.00 0.00 67 1015.3
20260905155327 32 51 4.8 9.7 0.00 0.00 0.00 68 1015.5
20260905154341 31 298 3.2 8.0 0.00 0.00 0.00 69 1015.5
20260905153341 31 95 4.8 8.0 0.00 0.00 0.00 72 1015.6
20260905152316 31 48 1.6 6.4 0.00 0.00 0.00 71 1015.5
20260905151350 30 40 3.2 9.7 0.00 0.00 0.00 73 1015.6
20260905150325 29 43 4.8 8.0 0.00 0.00 0.00 73 1015.7
20260905145325 28 223 0.0 3.2 0.00 0.00 0.00 78 1015.7
20260905144318 28 223 0.0 1.6 0.00 0.00 0.00 81 1015.8
20260905143314 28 223 0.0 4.8 0.00 0.00 0.00 81 1015.8
20260905142332 27 252 1.6 4.8 0.00 0.00 0.00 82 1015.8
20260905141326 26 327 0.0 0.0 0.00 0.00 0.00 84 1015.8
20260905140343 26 327 0.0 0.0 0.00 0.00 0.00 87 1015.8
20260905135317 26 327 1.6 3.2 0.00 0.00 0.00 87 1015.9
20260905134336 25 43 0.0 0.0 0.00 0.00 0.00 89 1015.9
20260905133351 25 43 0.0 0.0 0.00 0.00 0.00 90 1015.9
20260905132326 25 43 0.0 0.0 0.00 0.00 0.00 92 1015.9
20260905131320 24 43 0.0 0.0 0.00 0.00 0.00 93 1016.0